Weather History for East Milton, MA

Change the Weather History Date:

Friday, November 30, 2012

  Actual Average (KBOS) Record (KBOS)
Temperature  
Mean Temperature 32 °F 40 °F  
Max Temperature 35 °F 47 °F 69 °F (2006)
Min Temperature 28 °F 34 °F -2 °F (1875)
Degree Days  
Heating Degree Days 34 25  
Month to date heating degree days 610  
Since 1 July heating degree days 1055  
Cooling Degree Days 0 0  
Month to date cooling degree days 0  
Year to date cooling degree days 747  
Moisture  
Dew Point 14 °F    
Average Humidity 51    
Maximum Humidity 73    
Minimum Humidity 31    
Precipitation  
Precipitation 0.00 in 0.14 in 2.17 in (1944)
Month to date precipitation 3.99  
Year to date precipitation 39.99  
Sea Level Pressure  
Sea Level Pressure 30.45 in    
Wind  
Wind Speed 9 mph (NNE)    
Max Wind Speed 14 mph    
Max Gust Speed 24 mph    
T = Trace of Precipitation, MM = Missing Value Source: NWS Daily Summary

Daily Weather History Graph

Daily Weather History Graph

Search for Another Location

Airport:

Trip Planner

Search our weather history database for the weather conditions in past years. The results will help you decide how hot, cold, wet, or windy it might be!

Date:

Astronomy

Nov. 30, 2012 Rise Set
Actual Time 6:52 AM EST 4:13 PM EST
Civil Twilight 6:21 AM EST 4:44 PM EST
Nautical Twilight 5:46 AM EST 5:19 PM EST
Astronomical Twilight 5:13 AM EST 5:53 PM EST
Moon 6:05 PM EST (11/30) 8:22 AM EST (11/30)
Length of Visible Light 10h 22m
Length of Day
9h 20m
Waning Gibbous, 96% of the Moon is Illuminated
Nov 30
Waning Gibbous
Dec 6
Last Quarter
Dec 13
New
Dec 20
First Quarter
Dec 28
Full

Hourly Weather History & Observations

Time (EST) Temp. Windchill Dew Point Humidity Pressure Visibility Wind Dir Wind Speed Gust Speed Precip Events Conditions
12:54 AM 35.1 °F 25.9 °F 23.0 °F 61% 30.24 in - SW 13.8 mph 20.7 mph N/A   Unknown
1:54 AM 35.1 °F 25.9 °F 23.0 °F 61% 30.26 in - WSW 13.8 mph 21.9 mph N/A   Unknown
2:54 AM 32.0 °F 24.2 °F 23.0 °F 69% 30.28 in - NW 9.2 mph - N/A   Unknown
3:54 AM 32.0 °F 24.2 °F 24.1 °F 73% 30.32 in - North 9.2 mph - N/A   Unknown
4:54 AM 30.9 °F 22.2 °F 23.0 °F 72% 30.35 in - North 10.4 mph - N/A   Unknown
5:54 AM 30.9 °F 22.2 °F 23.0 °F 72% 30.38 in - North 10.4 mph - N/A   Unknown
6:54 AM 30.0 °F 20.0 °F 21.9 °F 72% 30.40 in - North 12.7 mph 19.6 mph N/A   Unknown
7:54 AM 28.9 °F 19.2 °F 15.1 °F 56% 30.43 in - North 11.5 mph 24.2 mph N/A   Unknown
8:54 AM 30.0 °F 21.1 °F 10.0 °F 43% 30.46 in - North 10.4 mph 21.9 mph N/A   Unknown
9:54 AM 30.9 °F 23.5 °F 10.0 °F 42% 30.48 in - NNW 8.1 mph 16.1 mph N/A   Unknown
10:54 AM 30.0 °F 22.4 °F 6.1 °F 36% 30.48 in - North 8.1 mph - N/A   Unknown
11:54 AM 32.0 °F 25.6 °F 5.0 °F 32% 30.47 in - North 6.9 mph - N/A   Unknown
12:54 PM 32.0 °F 28.7 °F 5.0 °F 32% 30.47 in - Variable 3.5 mph - N/A   Unknown
1:54 PM 30.9 °F 25.2 °F 3.0 °F 31% 30.46 in - Variable 5.8 mph - N/A   Unknown
2:54 PM 30.0 °F 26.5 °F 6.1 °F 36% 30.48 in - Variable 3.5 mph - N/A   Unknown
3:54 PM 28.9 °F 23.9 °F 7.0 °F 40% 30.51 in - ENE 4.6 mph - N/A   Unknown
4:54 PM 28.9 °F 22.8 °F 8.1 °F 41% 30.51 in - East 5.8 mph - N/A   Unknown
5:54 PM 28.9 °F 23.9 °F 8.1 °F 41% 30.52 in - East 4.6 mph - N/A   Unknown
6:54 PM 30.0 °F - 10.9 °F 45% 30.54 in - Calm Calm - N/A   Unknown
7:54 PM 30.0 °F 26.5 °F 15.1 °F 54% 30.55 in - ENE 3.5 mph - N/A   Unknown
8:54 PM 30.0 °F 25.2 °F 14.0 °F 51% 30.56 in - ENE 4.6 mph - N/A   Unknown
9:54 PM 30.0 °F 25.2 °F 15.1 °F 54% 30.56 in - ENE 4.6 mph - N/A   Unknown
10:54 PM 30.0 °F 25.2 °F 16.0 °F 56% 30.56 in - ENE 4.6 mph - N/A   Unknown
11:54 PM 30.0 °F 26.5 °F 16.0 °F 56% 30.57 in - East 3.5 mph - N/A   Unknown